Race Results for
US Mtb National Championships
Mammoth Lakes, CA
(Event Information)
Super D on 09/17/2005

Note: Ranking points are NOT upgrade points. An explanation of ranking points can be found here.


Men - Cat 1/2/3 - Senior - 19-29

 Place Points NameCity, StateTime USAC #BibTeam
1 Noah Singer   Little Rock, AR0:23:38.58 171313  203 CANNONDALE
2 Nathan Winkelmann   Huntsville, TX0:23:49.07 188575  411 EDWARD JON
3 Dustin Wanstrath   Durango, CO0:23:50.60 190121  1490 FORTFRAMES
4 Robert Herber   Murrieta, CA0:23:53.85 153464  230 INTENSE/IE
5 Dan Nielsen   Big Bear City, CA0:24:06.88 139655  1622 BEAR VALLE
6 Brandon Akers   Boise, ID0:24:37.39 96007  232 TAMARACK R
7 Greg Gibson   Big Bear Lake, CA0:24:46.65 111046  1523 CHUCKY/PHA
8 Steve Busher   Hemet, CA0:25:01.00 231970  1402 IDYLLWILD
9 Russell Castro   Mammoth Lakes, CA0:25:04.54 233345  1444 
10 Nicholas Connolly   Reno, NV0:25:20.71 194489  948 
11 Josh Slater   Mammoth Lakes, CA0:25:34.39 234045  1212 
12 Ian Burnett   Durango, CO0:25:55.04 191725  1494 TITUS CYCL
13 MIKE FUCCI   0:26:00.42  1327 SIERRA SPO
14 Daniel Smith   Fayetteville, AR0:27:05.49 176262  1721 HIGHROLLER
15 Phillip Ball   Louisville, CO0:27:14.46 201144  1450 70 SPOKES
16 SCOTT OREHOK   0:27:23.58  1544 
17 MISCHA GRANACH   0:28:02.61  1553 
18 MILES GARY   0:28:25.30  870 THE CAR ST
19 Michael Kelley   Moorpark, CA0:28:28.13 162080  621 KHS
20 Matias Lauryssens   Costa Mesa, CA0:28:29.60 186888  926 CRANKBROTH
21 MARIO ARCE   0:28:30.01  1567 DARE/SPOKE
22 KEVIN KIRK   0:28:32.83  1445 
23 ARA MOVSESSIAN   0:28:39.88  1515 BACKBONE
24 John Valera   San Jose, CA0:29:03.10 226957  1159 SANTA CRUZ
25 Than White   Asheville, NC0:29:05.60 146435  1520 SHIMANO
26 Chris Bradbury   Bishop, CA0:29:14.32 233585  711 
27 Nate Simonson   Reno, NV0:29:24.90 195009  1655 RITCHEY/RE
28 Michael Colbert   0:29:48.60 233582  684 DYNASTY CL
29 CASEY BURROWS   0:29:54.60  696 
30 John Cordoba   Morgan Hill, CA0:30:10.95 225871  1323 AFP/VELO S
31 Scott Brafford   Fairfield, CA0:30:17.08 211499  1672 
32 ERIC ARCE   0:30:58.71  1577 
33 RANBIR LALLY   0:32:19.89  1602 RIDE SFO
34 THOMAS MALLERY   0:32:54.49  1597 
35 OMAR CACHOLA   0:33:06.53  1691 
36 JAMES LANHAM   0:33:57.31  1604 GNARBUCKLE
37 Christopher Rodriguez   Santa Cruz, CA0:35:57.36 158280  1488 VERSUS CYC
38 Cecil Bridges   Oceanside, CA0:36:48.11 214301  1633 
39 Steve Marshall   Big Bear Lake0:39:16.71 122108  453 BEAR VALLE
40 CONAR HENDRY   1:12:03.10  1276 
DNF CORWIN RYAN     1603 

Men - Cat 1/2/3 - Master - 30-39

 Place Points NameCity, StateTime USAC #BibTeam
1 Michael Pastore   Avon, CO0:23:14.62 85683  779 MOUNTAIN P
2 Derek Hermon   Big Bear Lake, CA0:23:58.64 15935  1172 BEARVALLEY
3 Michael Kent   Goleta, CA0:24:01.44 18956  464 
4 Michael Males   Ahwahnee, CA0:24:07.28 111454  791 
5 Courtney Cardenas   Mount Aukum, CA0:24:09.49 144304  1651 HAVERTY CY
6 Dax Massey   Boulder, CO0:24:19.29 227442  1561 ELLSWORTH/
7 Chris Carscadden   Walnut Creek, CA0:24:21.04 165751  1476 FOX/WTB
8 Thomas Sulentic   Iowa City, IA0:24:21.85 34574  1061 ATLAS/PEAK
9 Ron Koch   Frazier Park, CA0:24:26.09 19530  1409 BICYCLING
10 Chris Sherwin   Heber, UT0:24:40.91 190208  1068 REVOLUTION
11 Lee McCormack   Boulder, CO0:24:42.61 104040  319 LEELIKESBI
12 Todd Smith   Breckenridge, CO0:24:45.34 40304  905 A RACERS E
13 Greg Frozley   Colorado Springs, CO0:24:54.11 12490  640 PRO CYCLIN
14 Ryan Johnson   Newport Beach, CA0:24:56.53 228262  804 TLD/PATH/F
15 Michael Fine   Vacaville, CA0:25:02.30 76882  484 BEYOND BIK
16 Josh Smith   Modjeska, CA0:25:07.85 218123  1292 ROCKY MTN
17 RANDY HALL   0:25:56.18  1010 
18 Daniel McCormack   San Diego, CA0:26:19.19 23313  995 BEYONDBIKE
19 Donald Morehouse   Reno, NV0:26:23.50 133559  1738 
20 DEVIN YOUNG   0:26:28.54  1289 
21 Keith Newsome   Bakersfield, CA0:26:34.20 79109  842 
22 Jeff Ham   Pearland, TX0:26:41.36 205451  1695 ALTA ALPIN
23 Lars Thomsen   San Jose, CA0:26:44.02 83197  1210 TRAIL HEAD
24 David Roth   Boulder, CO0:27:00.94 30683  982 TEAM HELEN
25 SHANNON CHURCHILL   0:27:11.01  879 TROYLEE DE
26 Shane Stilwell   Sierra Vista, AZ0:27:24.42 155240  903 DAWN TO DU
27 BOONE JONES   0:27:38.14  1699 SHERWINS R
28 Michael McDonald   Boise, ID0:27:51.58 205325  1086 INTERMOUNT
29 Brad Reece   Mission Viejo, CA0:28:10.34 234005  911 
30 Michael Nixon   Mius River, FL0:28:12.22 209671  1279 CANNONDALE
31 WILLIAM CARYL   0:29:04.15  690 
32 Anthony Trujillo   Aptos, CA0:29:22.03 80981  1373 FOX SHOX
33 DAVID BARDWELL   0:29:45.50  739 US CAOST G
34 Eric Sterner   San Anselmo, CA0:30:00.82 195323  498 RIDESFO
35 James Mitchell   Phoenix, AZ0:31:18.52 222643  1339 BEYOND BIK
36 Jason Enright   Pearl City, HI0:32:02.37 226998  654 SHAKA BIKE
37 MICHAEL REED   0:33:53.94  1619 
38 Brian Luke   Escondido, CA0:34:10.96 207017  611 
39 Dominique Saati   Cypress, CA0:34:35.04 200748  1593 
40 NATHAN BROGGI   0:36:17.08  1274 
41 John Galli   Cazenovia, NY0:37:23.53 12696  303 CNYBIKES.C
42 GEORGE TORRES   0:40:05.04  1269 
43 Glen Davis   Marysville, CA0:52:50.10 218053  1268 
DNF JIM OCONNELL     1324 
DNF MARC MANLOVE     1685 PROCRAFT
DNF Timothy Owen   Castro Valley, CA 79234  1329 
DNF Bruce Custer   Ventura, CA 94829  1457 MARZOCCHI/
DNF BOB BARWICK     737 FAMILY CYC
DNF Paul Del Fante   Truckee, CA 218092  665 
DNF Heath Sherratt   Roseville, CA 189953  427 CANNONDALE
DNF BARRY WILLIAMS     412 NEMESIS RA
DNF MATTHEW DAVIS     876 
DNF Adam Kruse   Emeryville, CA 222220  1596 ORGANICVIL
DNF Scott Schlachter   San Jose, CA 31591  1331 TEAM WRONG

Men - Cat 1/2/3 - Master - 40-49

 Place Points NameCity, StateTime USAC #BibTeam
1 Todd Brown   Rancho Santa Margarita, CA0:23:27.75 48675  955 SOCKITUDES
2 Brian Wilson   Mammoth Lakes, CA0:23:33.48 146857  1316 MAMMOTH SP
3 ADAM NUYENS   0:24:30.48  988 WTB/FOX/SA
4 John Fisher   Oakhurst, CA0:24:49.42 11711  1467 5 STEP/STE
5 GREG HERBOLD   0:25:01.23  1446 SRAM
6 Peter Sullivan   Newbury Park, CA0:25:25.41 34616  1160 AMGEN
7 Stephen Smith   Montrose , CA0:26:33.69 33294  764 TEAM SMITH
8 William Roussel   Ashland, OR0:27:17.63 129714  1439 WTB/FOXSHO
9 Scott Anthony   Phoenix, AZ0:27:49.05 107969  1381 BEYOND BIK
10 MIKE CHAMBERLAND   0:28:10.88  1500 
11 Jeff Broussard   Corte Madera, CA0:28:19.37 178135  707 MARIN
12 MIKE COLOMBANI   0:28:31.75  681 SCOTTSVALL
13 Joe Fabris   Los Gatos, CA0:28:31.92 189959  645 TREO SMART
14 Les Price   Scottsdale, AZ0:29:43.38 177801  1379 NO BRAKES
15 Mike Eubank   Boulder, CO0:29:44.23 211496  1576 EUBANK RAC
16 Doug Streeter   Oro Valley, AZ0:30:55.15 195885  901 ORO VALLEY
17 Bobby Bondurant   Big Bear City, CA0:31:08.24 107266  1466 BEAR VALLE
18 BRIAN GARDENER   0:31:59.78  1717 
19 Michael Yares   Phoenix, AZ0:32:37.70 39161  1395 NO BRAKES/
20 Don Herner   Anahiem Hills, CA0:33:54.71 15955  548 TURNER HON
21 Thomas Blaine   Highland, CA0:35:15.81 40752  1629 JOSE OLE
22 Gary DeWeese   Phoenix, AZ0:44:16.94 90189  1380 NO BRAKES/
DNF Moses Cruz   Tempe, AZ 132796  1427 NO BRAKES
DNF Eric Ortega   Calabasas, CA 180931  1552 
DNF Michael Jennings   San Diego, CA 17764  624 LENZSPORT
DNF Keith Darner   Golden, CO 8663  1176 RPM/YETI
DNF Rod Graybeal   Coeur D Alene, ID 148384  634 VERTICAL E

Men - Cat 1/2/3 - Master - 50-99

 Place Points NameCity, StateTime USAC #BibTeam
1 Paul Zarubin   Truckee, CA0:27:31.37 196952  894 MT LINCOLN
2 Scott Lideen   Phoenix, AZ0:27:42.57 142637  925 DPAIR AND
3 Michael Toland   Santa Cruz, CA0:28:55.52 214465  1390 ABS/FOX
4 Gil Goodrich   Three Rivers, CA0:29:49.45 13682  1355 FILZ BUILT
5 Fred Froemel   El Paso, TX0:30:29.96 220462  1105 
6 MICHAEL DAVID   0:30:33.01  1503 TROY LEE D
7 Allan Beattie   Snoqualmie, WA0:31:50.17 190830  1264 
8 William Dunkum   Cool, CA0:34:09.34 157140  662 
9 ANDREW KESTLER   0:37:40.89  928 SUMMIT BIC
10 DAVID BUCKELL   0:45:38.47  1594 
11 THOMAS HERMON   0:47:56.20  1550 BEAR VALLE
12 James Van Manen   Ventura, CA0:47:58.96 36453  1058 BICYCLES O
DNF John Williams   Oro Valley, AZ 200262  1340 BEYOND BIK
DNF Charles Libolt   Riverside, CA 117814  1091 
DNF Philip Strong   Idyllwild, CA 152318  419 IDYLLWILD

Men - JR - 1-18

 Place Points NameCity, StateTime USAC #BibTeam
1 Trevor Downing   Durango, CO0:23:22.28 161859  1110 TEAM NOVA
2 Kyle Wideman   San Luis Obispo, CA0:24:04.86 211640  966 WTB
3 Luke Brechwald   Olympia, WA0:25:01.22 178514  709 RAD RACING
4 John Purvis   Parthenon, AR0:25:05.23 200977  1075 NWA BUSHME
5 Marc Swart   Winona, MN0:25:33.40 202139  972 ALAN FACTO
6 Rand Shoaf   Bend, OR0:25:54.94 193872  906 DEVO-BALAN
7 Naish Ulmer   Hood River, OR0:26:05.90 175253  1059 YOUNG RIDE
8 Sean Lane   Nevada City, CA0:27:35.05 207307  1219 
9 Taylor Lideen   Phoenix, AZ0:27:40.08 210964  854 TLD/UTOPIA
10 JONATHON BUCKELL   0:28:48.59  1595 DB CONSTRU
11 Adam Connolly   Reno, NV0:29:20.31 234021  1228 
12 ALEX ANTHONY   0:29:30.24  1232 MARZOCCHI
13 Benjamin Kraushaar   Durango, CO0:30:55.37 198737  1000 DURANGO WH
14 CULLEN MORAN   0:32:27.66  1308 MTB LITTLE
15 Joseph Larko   Los Gatos, CA0:34:50.01 218931  616 SANTA CRUZ
16 Cosmos Rothenberg   Pacifica, CA0:35:58.48 226572  1188 BLASTENHOF
17 Hunter Becker   Santa Barbara, CA0:48:53.11 217149  888 NO BRAKES
DNF Kyle Wright   Grass Valley, CA 205284  1616 SIERRA EXP

Men - Pro

 Place Points NameCity, StateTime USAC #BibTeam
1 Adam Craig   Bend, OR0:20:11.45 94510  837 GIANT
2 Mike West   Boulder, CO0:20:44.29 37786  833 MAVERICK
3 Bryson Perry   Sandy, UT0:21:12.85 89388  1683 SOCKITUDES
4 Christopher Eatough   Ellicott City, MD0:21:29.90 97632  1348 TREK/VW
5 Sam Schultz   Missoula, MT0:21:35.53 164788  15 U23 NATION
6 Ross Schnell   Grand Jct, CO0:21:36.24 99965  1491 TOKYO JOES
7 Amon Pease   Point Arena, CA0:21:41.64 82723  1130 INTENSE
8 Brian Laiho   Boulder, CO0:21:47.26 114793  405 DEAN BICYC
9 Jason Moeschler   Nevada City, CA0:21:51.86 90775  1549 SIERRA EXP
10 Michael Broderick   Chilmark, MA0:22:27.03 4922  1477 KENDA/SEVE
11 Eric Bierman   Newport Beach, CA0:22:27.07 44269  729 
12 Henry O'Donnell   Downieville, CA0:22:39.22 158964  1458 SANTA CRUZ
13 John Tomac   Cortez, CO0:22:40.95 40324  1447 KENDA/TOMA
14 Brent Winebarger   Colorado Springs, CO0:22:42.80 132038  80 HEALTH FX/
15 Osvaldo Olmos   San Luis Obispo, CA0:22:45.67 172541  227 TEAM CORIN
16 Spencer Paxson   Bellingham, WA0:22:47.57 152029  403 DEVO BALAN
17 T Henshall   Boise, ID0:22:59.31 15869  213 THERAPUTIC
18 Miles Venzara   Durango, CO0:23:10.81 138725  1131 TEAM HEALT
19 Sean Donovan   Foothill Ranch, CA0:23:12.28 186481  1438 STEVEN K S
20 Eric Ransom   Richmond, VA0:23:15.18 150928  404 TAMARACK R
21 Kirk Desmond   Novato, CA0:23:39.98 142104  1541 WTB/TRUVAT
22 Anthony Medaglia   San Luis Obispo, CA0:23:42.11 115178  1530 TRUVATIV/W
23 Shannon Boffeli   Salt Lake City, UT0:23:51.58 43484  220 REVOLUTION
24 Dana Weber   Aliso Viejo, CA0:24:05.90 126922  407 JAX BICYCL
25 Dustin Sweet   Reno, NV0:24:07.17 34787  345 TEAM EASY
26 BARRY WICKS   0:24:29.97  1535 
27 Evan Plews   Salem, OR0:24:38.84 28290  846 SANTIAM BI
28 Darren Lightfield   Boise, ID0:24:39.94 197708  408 TAMARACK
29 Matthew Wittler   Ashland, OR0:24:53.43 211532  206 KELLY BIKE
30 Shawn Stevenson   Castro Valley, CA0:26:06.57 172618  1425 
31 Michael Valach   Snowshoe, WV0:27:19.58 82951  326 VIC'S TREE
32 Douglas Ryden   Colorado Springs, CO0:27:28.27 106147  1573 PRO CYCLIN
33 Larry Averitt   Hillsboro, OR0:30:31.74 199880  1569 FAT LARRY
DNF Jon Wilson   Carson City, NV 38543  1366 RITCHEY
DNF Bryan Culp   Dublin, CA 90704  1499 

Women - Cat 1/2/3 - Senior - 19-29

 Place Points NameCity, StateTime USAC #BibTeam
1 Tiffany Allmandinger   Goleta, CA0:28:12.84 154173  829 DEATHSTAR
2 Heidi Kanayan   Mammoth Lakes, CA0:29:13.15 214650  1334 BEAR VALLE
3 Linden Kimmerer   Flagstaff, AZ0:30:04.61 202511  1246 YAKIMA/TEA
4 Jackie Baker   Sandy, UT0:31:00.92 139265  741 FERAL TERR
5 Ashley Eyre   Boulder, CO0:32:24.02 214077  646 MAVERICK B
6 NADINE BUDBILL   0:33:10.33  701 
7 Jennifer Udall   Watsonville, CA0:33:30.57 189902  1374 VELO BELLA
8 Lori Ellicott   Fillmore, CA0:37:08.80 218064  1226 BEYOND BIK
DNF KATELYN ADKINS     1635 

Women - Cat 1/2/3 - Master - 30-39

 Place Points NameCity, StateTime USAC #BibTeam
1 Tamara Adamek   Boise, ID0:30:09.35 218054  963 TAMARACK
2 JOAN GAUVIN   0:32:51.09  1262 TAM TEAM
3 MARIA STEARNS   0:33:07.07  904 
4 Jennifer Hanks   Salt Lake City, UT0:33:15.32 111202  814 MTBCHICK.C
5 Beth Koppe   Oakland, CA0:34:10.97 217972  799 BEYONDBIKE
6 BARBARA SLADECK   0:34:42.20  1634 
7 Laura Drexler   San Diego, CA0:38:07.30 207274  1201 BEYOND BIK
8 Jill Minor   Lake Elsinore, CA0:41:27.78 217595  845 
9 Virginia Williams   Barstow, CA0:44:51.38 219862  489 
DNF ANJIE PARKER     836 RED HAWK C

Women - Cat 1/2/3 - Master - 40-99

 Place Points NameCity, StateTime USAC #BibTeam
1 Alexandria Fabbro   Altadena, CA0:29:50.89 56090  1018 VELO BELLA
2 Jacqueline VanWoerkom   Lake Forest, CA0:32:43.76 159289  416 
3 Debi Nicholls   Trabuco Canyon, CA0:32:57.92 159710  523 AFP/VELO
4 Donna Vargas   Mission Viejo, CA0:38:27.32 194526  1401 VELOSPORT-
5 Judi Mumm   Rio Rancho, NM0:40:59.34 50026  526 UTOPIA OPT

Women - JR - 1-18

 Place Points NameCity, StateTime USAC #BibTeam
1 Danae York   Boulder, CO0:31:22.58 178290  1039 VELOBUM.CO
2 Jesse Nickell   Santa Cruz, CA0:36:29.96 222295  782 BICYCLE TR

Women - Pro

 Place Points NameCity, StateTime USAC #BibTeam
1 Kelli Emmett   Plymouth Mi0:25:02.05 156146  1312 FORD/SPECI
2 Jamie Whitmore-Cardenas   Mount Aukum, CA0:25:34.92 169611  1525 REEBOK/FEL
3 Dara Marks-Marino   Flagstaff, AZ0:25:36.42 144461  1314 FORD/SPECI
4 SUE HAYWOOD   0:25:36.50  1349 
5 Lorien Lightfield   Boise, ID0:26:08.13 98936  401 TAMARACK
6 ELKE BRUETSART   0:26:39.55  1710 
7 Tonya Laffey   Altadena, CA0:26:48.44 121249  1546 MTBCHICK.C
8 Heather Svahn   Truckee, CA0:26:50.93 112034  402 RENO WHEEL
9 Sara Bresnick-Zocchi   Arlington, MA0:26:56.68 166426  1313 FORD/SPECI
10 Mary McConneloug   Chilmark, MA0:27:01.17 129285  1478 KENDA/SEVE
11 Lea Davison   Jericho, VT0:28:19.74 164014  1442 BALANCE BA
12 Wendy Reynolds   Moab, UT0:28:23.51 201162  CANNONDALE
13 Alison Dunlap   Colorado Springs, CO0:28:55.71 10194  851 LUNA WOMEN
14 Paula Santerior   Reno, NV0:28:59.60 31276  27 
15 Kristi Lewis   Durango, CO0:30:24.79 21089  1133 SUN & SKI
16 Rebecca Gross   Golden, CO0:32:54.21 176014  1505 SUN AND SK
DNF Kristina Andrus   Evergreen, CO 152326  860 CANYON CYC

Report missing or incorrect license numbers

Volkswagen
SpyShimanoOSMOBonk BreakerUSACDFCUORESierra Nevada
UCI USA Cycling is the official governing body for all disciplines of competitive cycling in the United States. The 501c3, membership-based organization aims both to achieve sustained success in international cycling competition and to grow competitive cycling in America while delivering an exceptional customer experience.
View Children's Online Privacy Protection Policy
US Olympic Committee